Time,TemperatureF,DewpointF,PressureIn,WindDirection,WindDirectionDegrees,WindSpeedMPH,WindSpeedGustMPH,Humidity,HourlyPrecipIn,Conditions,Clouds,dailyrainin,SoftwareType,DateUTC
2013-06-16 00:01:00,62.6,46.2,29.81,SW,232,4.0,5.0,55,0.00,,,0.00,Wunderground v.1.13,2013-06-16 04:01:00,
2013-06-16 00:31:00,62.0,46.1,29.80,SW,220,4.0,4.0,56,0.00,,,0.00,Wunderground v.1.13,2013-06-16 04:31:00,
2013-06-16 01:01:00,61.3,46.8,29.80,SW,217,2.0,5.0,59,0.00,,,0.00,Wunderground v.1.13,2013-06-16 05:01:00,
2013-06-16 01:31:00,61.0,47.0,29.80,WSW,238,3.0,3.0,60,0.00,,,0.00,Wunderground v.1.13,2013-06-16 05:31:00,
2013-06-16 02:01:00,60.9,47.4,29.80,SW,234,2.0,5.0,61,0.00,,,0.00,Wunderground v.1.13,2013-06-16 06:01:00,
2013-06-16 02:31:00,60.9,48.2,29.79,SSW,207,1.0,5.0,63,0.00,,,0.00,Wunderground v.1.13,2013-06-16 06:31:00,
2013-06-16 03:01:00,60.7,47.6,29.79,SSW,198,4.0,4.0,62,0.00,,,0.00,Wunderground v.1.13,2013-06-16 07:01:00,
2013-06-16 03:31:00,60.1,46.2,29.79,South,182,3.0,10.0,60,0.00,,,0.00,Wunderground v.1.13,2013-06-16 07:31:00,
2013-06-16 04:01:00,59.3,45.4,29.78,SSW,207,1.0,1.0,60,0.00,,,0.00,Wunderground v.1.13,2013-06-16 08:01:00,
2013-06-16 04:31:00,58.0,45.9,29.79,SSW,205,1.0,1.0,64,0.00,,,0.00,Wunderground v.1.13,2013-06-16 08:31:00,
2013-06-16 05:01:00,56.7,45.9,29.77,SSW,205,0.0,5.0,67,0.00,,,0.00,Wunderground v.1.13,2013-06-16 09:01:00,
2013-06-16 05:31:00,55.3,46.4,29.76,SSW,205,0.0,5.0,72,0.00,,,0.00,Wunderground v.1.13,2013-06-16 09:31:00,
2013-06-16 06:01:00,55.0,47.2,29.76,SSW,205,0.0,5.0,75,0.00,,,0.00,Wunderground v.1.13,2013-06-16 10:01:00,
2013-06-16 06:31:00,56.2,48.4,29.75,SSW,205,0.0,5.0,75,0.00,,,0.00,Wunderground v.1.13,2013-06-16 10:31:00,
2013-06-16 07:01:00,60.1,49.5,29.75,SSW,198,3.0,5.0,68,0.00,,,0.00,Wunderground v.1.13,2013-06-16 11:01:00,
2013-06-16 07:31:00,62.6,51.5,29.74,SSW,200,2.0,5.0,67,0.00,,,0.00,Wunderground v.1.13,2013-06-16 11:31:00,
2013-06-16 08:01:00,64.3,52.3,29.74,WSW,244,3.0,6.0,65,0.00,,,0.00,Wunderground v.1.13,2013-06-16 12:01:00,
2013-06-16 08:31:00,63.4,52.2,29.74,SSW,205,3.0,3.0,67,0.00,,,0.00,Wunderground v.1.13,2013-06-16 12:31:00,
2013-06-16 09:01:00,63.4,52.2,29.72,SSW,211,1.0,1.0,67,0.00,,,0.00,Wunderground v.1.13,2013-06-16 13:01:00,
2013-06-16 09:31:00,63.5,54.3,29.71,SSW,211,0.0,5.0,72,0.00,,,0.00,Wunderground v.1.13,2013-06-16 13:31:00,
2013-06-16 10:01:00,63.5,54.7,29.72,SSW,213,1.0,1.0,73,0.00,,,0.00,Wunderground v.1.13,2013-06-16 14:01:00,
2013-06-16 10:31:00,61.8,56.2,29.71,SW,214,2.0,5.0,82,0.15,,,0.02,Wunderground v.1.13,2013-06-16 14:31:00,
2013-06-16 11:01:00,60.2,57.6,29.72,SW,220,1.0,1.0,91,0.13,,,0.11,Wunderground v.1.13,2013-06-16 15:01:00,
2013-06-16 11:31:00,59.9,57.6,29.69,SW,220,0.0,5.0,92,0.14,,,0.16,Wunderground v.1.13,2013-06-16 15:31:00,
2013-06-16 12:01:00,60.1,58.1,29.67,SW,220,0.0,5.0,93,0.09,,,0.21,Wunderground v.1.13,2013-06-16 16:01:00,
2013-06-16 12:31:00,59.6,57.6,29.65,SW,221,0.0,5.0,93,0.07,,,0.27,Wunderground v.1.13,2013-06-16 16:31:00,
2013-06-16 13:01:00,59.6,57.6,29.66,SW,221,0.0,5.0,93,0.13,,,0.35,Wunderground v.1.13,2013-06-16 17:01:00,
2013-06-16 13:31:00,58.9,57.2,29.65,North,355,3.0,5.0,94,0.09,,,0.39,Wunderground v.1.13,2013-06-16 17:31:00,
2013-06-16 14:01:00,58.1,56.7,29.64,North,5,2.0,5.0,95,0.09,,,0.45,Wunderground v.1.13,2013-06-16 18:01:00,
2013-06-16 14:31:00,58.3,57.2,29.63,North,5,1.0,1.0,96,0.16,,,0.54,Wunderground v.1.13,2013-06-16 18:31:00,
2013-06-16 15:01:00,59.2,58.1,29.61,North,5,1.0,1.0,96,0.04,,,0.56,Wunderground v.1.13,2013-06-16 19:01:00,
2013-06-16 15:31:00,59.3,58.2,29.62,North,5,1.0,1.0,96,0.00,,,0.56,Wunderground v.1.13,2013-06-16 19:31:00,
2013-06-16 16:01:00,59.5,58.4,29.60,North,5,1.0,5.0,96,0.00,,,0.56,Wunderground v.1.13,2013-06-16 20:01:00,
2013-06-16 16:31:00,58.9,57.8,29.60,North,5,2.0,2.0,96,0.00,,,0.56,Wunderground v.1.13,2013-06-16 20:31:00,
2013-06-16 17:01:00,58.3,57.2,29.61,North,5,2.0,2.0,96,0.00,,,0.56,Wunderground v.1.13,2013-06-16 21:01:00,
2013-06-16 17:31:00,57.3,56.2,29.63,North,355,3.0,5.0,96,0.00,,,0.57,Wunderground v.1.13,2013-06-16 21:31:00,
2013-06-16 18:01:00,57.5,56.4,29.64,NE,37,3.0,3.0,96,0.00,,,0.57,Wunderground v.1.13,2013-06-16 22:01:00,
2013-06-16 18:31:00,57.5,56.4,29.64,NE,37,1.0,1.0,96,0.00,,,0.57,Wunderground v.1.13,2013-06-16 22:31:00,
2013-06-16 19:01:00,57.8,56.4,29.66,NE,37,1.0,1.0,95,0.00,,,0.57,Wunderground v.1.13,2013-06-16 23:01:00,
2013-06-16 19:31:00,57.8,56.1,29.67,NE,37,0.0,5.0,94,0.00,,,0.57,Wunderground v.1.13,2013-06-16 23:31:00,
2013-06-16 20:01:00,58.4,56.4,29.68,NE,37,0.0,5.0,93,0.00,,,0.57,Wunderground v.1.13,2013-06-17 00:01:00,
2013-06-16 20:31:00,58.6,56.6,29.68,NE,37,0.0,5.0,93,0.00,,,0.57,Wunderground v.1.13,2013-06-17 00:31:00,
2013-06-16 21:01:00,58.3,56.6,29.70,NE,40,0.0,5.0,94,0.00,,,0.57,Wunderground v.1.13,2013-06-17 01:01:00,
2013-06-16 21:31:00,58.3,56.6,29.71,NE,40,0.0,5.0,94,0.00,,,0.57,Wunderground v.1.13,2013-06-17 01:31:00,
2013-06-16 22:01:00,58.3,56.9,29.71,NE,40,0.0,5.0,95,0.00,,,0.57,Wunderground v.1.13,2013-06-17 02:01:00,
2013-06-16 22:31:00,58.3,57.2,29.71,NE,40,1.0,1.0,96,0.00,,,0.57,Wunderground v.1.13,2013-06-17 02:31:00,
2013-06-16 23:01:00,58.1,57.0,29.71,NE,40,0.0,5.0,96,0.00,,,0.57,Wunderground v.1.13,2013-06-17 03:01:00,
2013-06-16 23:31:00,58.3,57.2,29.72,ESE,105,2.0,2.0,96,0.00,,,0.57,Wunderground v.1.13,2013-06-17 03:31:00,